CW1502 Weather Reports


Display with metric or nautical units.
time (UTC)temp
F
wind
direction
speed
MPH
gust
MPH
rain 1hr
in
rain 24hr
in
rain mn
in
humidity
%
barometer
mb
20171122235752 30 242 0.0 0.0 0.00 0.00 0.00 70 1024.9
20171122234319 30 242 0.0 0.0 0.00 0.00 0.00 69 1024.8
20171122232848 30 242 0.0 0.0 0.00 0.00 0.00 68 1025.0
20171122231303 31 242 0.0 0.0 0.00 0.00 0.00 68 1025.0
20171122225834 31 242 0.0 0.0 0.00 0.00 0.00 68 1024.8
20171122224349 31 242 0.0 0.0 0.00 0.00 0.00 68 1024.9
20171122222729 32 242 0.0 0.0 0.00 0.00 0.00 68 1025.0
20171122221300 32 242 0.0 0.0 0.00 0.00 0.00 67 1025.0
20171122215712 32 242 0.0 0.0 0.00 0.00 0.00 67 1025.5
20171122214243 33 242 1.0 0.0 0.00 0.00 0.00 67 1025.7
20171122212816 33 242 0.0 0.0 0.00 0.00 0.00 66 1025.8
20171122211203 33 242 1.0 0.0 0.00 0.00 0.00 66 1025.7
20171122205649 33 240 1.0 0.0 0.00 0.00 0.00 65 1025.7
20171122204210 33 225 1.0 0.0 0.00 0.00 0.00 65 1025.6
20171122202753 33 216 1.0 0.0 0.00 0.00 0.00 64 1025.7
20171122201145 33 252 1.0 0.0 0.00 0.00 0.00 64 1025.7
20171122195656 33 252 1.0 0.0 0.00 0.00 0.00 64 1025.6
20171122194258 33 253 1.0 0.0 0.00 0.00 0.00 63 1025.8
20171122192630 33 242 1.0 0.0 0.00 0.00 0.00 63 1026.1
20171122191201 33 254 2.0 0.0 0.00 0.00 0.00 63 1026.3
20171122185735 33 240 2.0 0.0 0.00 0.00 0.00 62 1026.4
20171122184130 33 272 4.0 0.0 0.00 0.00 0.00 62 1026.6
20171122182704 32 267 2.0 0.0 0.00 0.00 0.00 61 1026.6
20171122181053 32 248 3.0 0.0 0.00 0.00 0.00 61 1026.7
20171122175637 32 281 2.0 0.0 0.00 0.00 0.00 60 1026.8
20171122174208 32 294 3.0 0.0 0.00 0.00 0.00 60 1026.6
20171122172602 31 5 4.0 0.0 0.00 0.00 0.00 59 1026.9
20171122171128 31 10 1.0 0.0 0.00 0.00 0.00 60 1026.9
20171122165522 31 274 4.0 0.0 0.00 0.00 0.00 60 1027.0
20171122164056 31 28 3.0 0.0 0.00 0.00 0.00 60 1027.2
20171122162629 31 11 6.0 0.0 0.00 0.00 0.00 60 1027.6
20171122161015 30 360 5.0 0.0 0.00 0.00 0.00 60 1027.8
20171122155627 30 355 4.0 0.0 0.00 0.00 0.00 61 1027.7
20171122154006 30 360 4.0 0.0 0.00 0.00 0.00 61 1027.8
20171122152607 30 5 5.0 0.0 0.00 0.00 0.00 61 1027.6
20171122151112 30 342 3.0 0.0 0.00 0.00 0.00 62 1027.5
20171122145520 30 314 2.0 0.0 0.00 0.00 0.00 63 1027.2
20171122144045 29 350 3.0 0.0 0.00 0.00 0.00 64 1026.9
20171122142438 29 26 3.0 0.0 0.00 0.00 0.00 64 1026.9
20171122141022 29 324 1.0 0.0 0.00 0.00 0.00 66 1026.9
20171122135540 29 324 3.0 0.0 0.00 0.00 0.00 66 1026.7
20171122133959 28 322 0.0 0.0 0.00 0.00 0.00 67 1026.6
20171122132531 28 321 1.0 0.0 0.00 0.00 0.00 66 1026.7
20171122130947 28 347 0.0 0.0 0.00 0.00 0.00 67 1026.7
20171122125357 28 360 2.0 0.0 0.00 0.00 0.00 67 1026.6
20171122123921 28 5 1.0 0.0 0.00 0.00 0.00 67 1026.6
20171122122452 28 5 4.0 0.0 0.00 0.00 0.00 66 1026.4
20171122120850 28 360 4.0 0.0 0.00 0.00 0.00 67 1026.2
20171122115444 28 338 3.0 0.0 0.00 0.00 0.00 67 1026.0
20171122113848 28 340 3.0 0.0 0.00 0.00 0.00 67 1025.9
20171122110935 28 12 3.0 0.0 0.00 0.00 0.00 67 1025.4
20171122105330 28 349 4.0 0.0 0.00 0.00 0.00 67 1025.5
20171122103904 28 337 3.0 0.0 0.00 0.00 0.00 67 1025.4
20171122102310 28 355 3.0 0.0 0.00 0.00 0.00 66 1025.2
20171122100836 28 325 4.0 0.0 0.00 0.00 0.00 66 1024.8
20171122095313 28 320 6.0 0.0 0.00 0.00 0.00 65 1024.6
20171122093851 28 17 4.0 0.0 0.00 0.00 0.00 65 1024.4
20171122092228 28 340 5.0 0.0 0.00 0.00 0.00 65 1024.1
20171122090811 28 355 7.0 0.0 0.00 0.00 0.00 65 1024.0
20171122085324 28 342 5.0 0.0 0.00 0.00 0.00 65 1024.0
20171122083721 28 332 7.0 0.0 0.00 0.00 0.00 64 1023.8
20171122082252 28 360 8.0 0.0 0.00 0.00 0.00 64 1023.3
20171122080728 28 315 8.0 0.0 0.00 0.00 0.00 64 1023.3
20171122075257 28 332 7.0 0.0 0.00 0.00 0.00 64 1022.8
20171122073655 28 5 7.0 0.0 0.00 0.00 0.00 64 1022.7
20171122072231 29 360 7.0 0.0 0.00 0.00 0.00 66 1022.4
20171122070751 29 323 10.0 0.0 0.00 0.00 0.00 67 1022.2
20171122065132 29 9 10.0 0.0 0.00 0.00 0.00 67 1021.8
20171122063715 30 327 6.0 0.0 0.00 0.00 0.00 68 1021.5
20171122062117 30 5 6.0 0.0 0.00 0.00 0.00 68 1021.2
20171122060656 30 350 6.0 0.0 0.00 0.00 0.00 68 1021.2
20171122055235 30 319 8.0 0.0 0.00 0.00 0.00 69 1021.1
20171122053642 30 309 6.0 0.0 0.00 0.00 0.00 69 1020.9
20171122052228 31 348 7.0 0.0 0.00 0.00 0.00 69 1020.6
20171122050618 31 355 7.0 0.0 0.00 0.00 0.00 68 1020.5
20171122045222 31 34 8.0 0.0 0.00 0.00 0.04 67 1020.5
20171122043601 31 341 4.0 0.0 0.00 0.00 0.04 67 1020.2
20171122042138 31 348 9.0 0.0 0.00 0.00 0.04 66 1019.9
20171122040535 31 349 8.0 0.0 0.00 0.00 0.04 65 1019.6
20171122035100 31 339 9.0 0.0 0.00 0.00 0.04 64 1019.3
20171122033641 31 5 9.0 0.0 0.00 0.00 0.04 64 1019.3
20171122032100 31 339 11.0 0.0 0.00 0.00 0.04 64 1019.1
20171122030627 32 340 10.0 0.0 0.00 0.00 0.04 66 1018.8
20171122025022 32 355 7.0 0.0 0.00 0.00 0.04 66 1018.5
20171122023602 32 350 10.0 0.0 0.00 0.00 0.04 65 1018.4
20171122022005 32 306 7.0 0.0 0.00 0.00 0.04 65 1018.4
20171122020524 33 317 8.0 0.0 0.00 0.00 0.04 65 1018.2
20171122014954 33 304 7.0 0.0 0.00 0.00 0.04 65 1018.2
20171122013515 33 327 7.0 0.0 0.00 0.00 0.04 66 1018.1
20171122012044 33 298 7.0 0.0 0.00 0.00 0.04 66 1017.8
20171122010443 33 306 7.0 0.0 0.00 0.00 0.04 66 1017.4
20171122005018 33 360 7.0 0.0 0.00 0.00 0.04 67 1017.4
20171122003412 33 335 7.0 0.0 0.00 0.00 0.04 67 1017.1
20171122001947 34 322 8.0 0.0 0.00 0.00 0.04 67 1016.9